Time,TemperatureF,DewpointF,PressureIn,WindDirection,WindDirectionDegrees,WindSpeedMPH,WindSpeedGustMPH,Humidity,HourlyPrecipIn,Conditions,Clouds,dailyrainin,SoftwareType,DateUTC
2013-02-16 00:00:00,27.3,25.3,30.11,NW,308,0.0,16.0,92,0.00,,,0.01,WeatherCatV1.02B3,2013-02-16 05:00:00,
2013-02-16 00:05:00,27.2,25.2,30.11,North,0,4.0,10.0,92,0.00,,,0.00,WeatherCatV1.02B3,2013-02-16 05:05:00,
2013-02-16 00:10:00,27.1,24.8,30.11,North,9,3.0,10.0,91,0.00,,,0.00,WeatherCatV1.02B3,2013-02-16 05:10:00,
2013-02-16 00:15:00,27.1,24.6,30.10,NNW,332,4.0,12.0,90,0.00,,,0.00,WeatherCatV1.02B3,2013-02-16 05:15:00,
2013-02-16 00:20:00,27.1,24.6,30.10,WNW,300,6.0,11.0,90,0.00,,,0.00,WeatherCatV1.02B3,2013-02-16 05:20:00,
2013-02-16 00:25:00,27.1,24.6,30.10,NW,310,6.0,9.0,90,0.00,,,0.00,WeatherCatV1.02B3,2013-02-16 05:25:00,
2013-02-16 00:30:00,27.1,24.3,30.10,NNW,334,9.0,9.0,89,0.00,,,0.00,WeatherCatV1.02B3,2013-02-16 05:30:00,
2013-02-16 00:35:00,27.0,24.2,30.10,NNW,331,2.0,10.0,89,0.00,,,0.00,WeatherCatV1.02B3,2013-02-16 05:35:00,
2013-02-16 00:40:00,26.9,24.1,30.09,North,0,5.0,7.0,89,0.00,,,0.00,WeatherCatV1.02B3,2013-02-16 05:40:00,
2013-02-16 00:45:00,26.9,24.1,30.10,NNW,333,6.0,10.0,89,0.00,,,0.00,WeatherCatV1.02B3,2013-02-16 05:45:00,
2013-02-16 00:50:00,26.8,24.3,30.09,NW,326,4.0,13.0,90,0.00,,,0.00,WeatherCatV1.02B3,2013-02-16 05:50:00,
2013-02-16 00:55:00,26.7,24.2,30.09,NW,309,0.0,12.0,90,0.00,,,0.00,WeatherCatV1.02B3,2013-02-16 05:55:00,
2013-02-16 01:00:00,26.6,24.1,30.09,North,355,6.0,7.0,90,0.00,,,0.00,WeatherCatV1.02B3,2013-02-16 06:00:00,
2013-02-16 01:05:00,26.5,24.0,30.09,North,350,4.0,13.0,90,0.00,,,0.00,WeatherCatV1.02B3,2013-02-16 06:05:00,
2013-02-16 01:10:00,26.5,24.2,30.09,NNE,27,4.0,6.0,91,0.00,,,0.00,WeatherCatV1.02B3,2013-02-16 06:10:00,
2013-02-16 01:15:00,26.4,24.1,30.08,NE,36,1.0,8.0,91,0.00,,,0.00,WeatherCatV1.02B3,2013-02-16 06:15:00,
2013-02-16 01:20:00,26.4,24.1,30.08,NNW,340,7.0,7.0,91,0.00,,,0.00,WeatherCatV1.02B3,2013-02-16 06:20:00,
2013-02-16 01:25:00,26.3,24.0,30.08,East,80,2.0,9.0,91,0.00,,,0.00,WeatherCatV1.02B3,2013-02-16 06:25:00,
2013-02-16 01:30:00,26.2,23.9,30.08,NNE,22,0.0,5.0,91,0.00,,,0.00,WeatherCatV1.02B3,2013-02-16 06:30:00,
2013-02-16 01:35:00,26.2,23.9,30.08,North,0,0.0,5.0,91,0.00,,,0.00,WeatherCatV1.02B3,2013-02-16 06:35:00,
2013-02-16 01:40:00,26.2,23.9,30.07,NW,324,3.0,6.0,91,0.00,,,0.00,WeatherCatV1.02B3,2013-02-16 06:40:00,
2013-02-16 01:45:00,26.0,23.5,30.07,North,5,2.0,5.0,90,0.00,,,0.00,WeatherCatV1.02B3,2013-02-16 06:45:00,
2013-02-16 01:50:00,26.0,23.5,30.07,North,0,8.0,8.0,90,0.00,,,0.00,WeatherCatV1.02B3,2013-02-16 06:50:00,
2013-02-16 01:55:00,25.9,23.4,30.07,North,9,0.0,7.0,90,0.00,,,0.00,WeatherCatV1.02B3,2013-02-16 06:55:00,
2013-02-16 02:00:00,25.8,23.0,30.07,NW,309,4.0,4.0,89,0.00,,,0.00,WeatherCatV1.02B3,2013-02-16 07:00:00,
2013-02-16 02:05:00,25.8,23.0,30.07,North,355,5.0,6.0,89,0.00,,,0.00,WeatherCatV1.02B3,2013-02-16 07:05:00,
2013-02-16 02:10:00,25.7,22.9,30.07,ENE,67,3.0,7.0,89,0.00,,,0.00,WeatherCatV1.02B3,2013-02-16 07:10:00,
2013-02-16 02:15:00,25.7,22.6,30.07,NNE,22,3.0,10.0,88,0.00,,,0.00,WeatherCatV1.02B3,2013-02-16 07:15:00,
2013-02-16 02:20:00,25.7,22.6,30.06,North,5,2.0,9.0,88,0.00,,,0.00,WeatherCatV1.02B3,2013-02-16 07:20:00,
2013-02-16 02:25:00,25.7,22.6,30.07,NNE,17,3.0,5.0,88,0.00,,,0.00,WeatherCatV1.02B3,2013-02-16 07:25:00,
2013-02-16 02:30:00,25.7,22.6,30.07,NNW,337,6.0,8.0,88,0.00,,,0.00,WeatherCatV1.02B3,2013-02-16 07:30:00,
2013-02-16 02:35:00,25.6,22.5,30.07,WSW,246,0.0,4.0,88,0.00,,,0.00,WeatherCatV1.02B3,2013-02-16 07:35:00,
2013-02-16 02:40:00,25.5,22.5,30.07,NNW,341,3.0,12.0,88,0.00,,,0.00,WeatherCatV1.02B3,2013-02-16 07:40:00,
2013-02-16 02:45:00,25.5,22.5,30.07,NNE,20,0.0,7.0,88,0.00,,,0.00,WeatherCatV1.02B3,2013-02-16 07:45:00,
2013-02-16 02:50:00,25.5,22.2,30.07,NW,315,4.0,6.0,87,0.00,,,0.00,WeatherCatV1.02B3,2013-02-16 07:50:00,
2013-02-16 02:55:00,25.5,22.5,30.06,WNW,302,2.0,5.0,88,0.00,,,0.00,WeatherCatV1.02B3,2013-02-16 07:55:00,
2013-02-16 03:00:00,25.4,22.4,30.05,North,350,4.0,8.0,88,0.00,,,0.00,WeatherCatV1.02B3,2013-02-16 08:00:00,
2013-02-16 03:05:00,25.5,22.5,30.06,NNW,333,3.0,5.0,88,0.00,,,0.00,WeatherCatV1.02B3,2013-02-16 08:05:00,
2013-02-16 03:10:00,25.4,22.1,30.05,West,268,3.0,6.0,87,0.00,,,0.00,WeatherCatV1.02B3,2013-02-16 08:10:00,
2013-02-16 03:15:00,25.4,22.1,30.05,WNW,287,0.0,6.0,87,0.00,,,0.00,WeatherCatV1.02B3,2013-02-16 08:15:00,
2013-02-16 03:20:00,25.4,21.8,30.05,WNW,302,3.0,6.0,86,0.00,,,0.00,WeatherCatV1.02B3,2013-02-16 08:20:00,
2013-02-16 03:25:00,25.4,21.8,30.05,West,264,0.0,5.0,86,0.00,,,0.00,WeatherCatV1.02B3,2013-02-16 08:25:00,
2013-02-16 03:30:00,25.4,22.1,30.05,NNW,331,6.0,7.0,87,0.00,,,0.00,WeatherCatV1.02B3,2013-02-16 08:30:00,
2013-02-16 03:35:00,25.3,22.0,30.04,NNW,331,2.0,12.0,87,0.00,,,0.00,WeatherCatV1.02B3,2013-02-16 08:35:00,
2013-02-16 03:38:00,25.3,22.0,30.04,North,351,4.0,6.0,87,0.00,,,0.00,WeatherCatV1.02B3,2013-02-16 08:38:00,
2013-02-16 03:43:00,25.2,22.2,30.04,NNE,30,3.0,6.0,88,0.00,,,0.00,WeatherCatV1.02B3,2013-02-16 08:43:00,
2013-02-16 03:48:00,25.1,22.1,30.04,NNE,12,3.0,6.0,88,0.00,,,0.00,WeatherCatV1.02B3,2013-02-16 08:48:00,
2013-02-16 03:53:00,25.0,22.0,30.04,NNE,13,3.0,9.0,88,0.00,,,0.00,WeatherCatV1.02B3,2013-02-16 08:53:00,
2013-02-16 03:58:00,24.9,21.6,30.04,NNE,18,0.0,5.0,87,0.00,,,0.00,WeatherCatV1.02B3,2013-02-16 08:58:00,
2013-02-16 04:03:00,25.0,21.7,30.04,NNW,337,1.0,6.0,87,0.00,,,0.00,WeatherCatV1.02B3,2013-02-16 09:03:00,
2013-02-16 04:08:00,25.1,21.5,30.03,North,9,3.0,4.0,86,0.00,,,0.00,WeatherCatV1.02B3,2013-02-16 09:08:00,
2013-02-16 04:13:00,25.1,21.5,30.03,NNW,328,2.0,5.0,86,0.00,,,0.00,WeatherCatV1.02B3,2013-02-16 09:13:00,
2013-02-16 04:18:00,25.2,21.1,30.03,NNW,340,2.0,5.0,84,0.00,,,0.00,WeatherCatV1.02B3,2013-02-16 09:18:00,
2013-02-16 04:23:00,25.2,21.3,30.03,NNW,327,0.0,6.0,85,0.00,,,0.00,WeatherCatV1.02B3,2013-02-16 09:23:00,
2013-02-16 04:28:00,25.3,21.4,30.03,North,5,5.0,5.0,85,0.00,,,0.00,WeatherCatV1.02B3,2013-02-16 09:28:00,
2013-02-16 04:33:00,25.4,21.3,30.03,WNW,284,5.0,5.0,84,0.00,,,0.00,WeatherCatV1.02B3,2013-02-16 09:33:00,
2013-02-16 04:38:00,25.4,21.3,30.03,North,9,0.0,6.0,84,0.00,,,0.00,WeatherCatV1.02B3,2013-02-16 09:38:00,
2013-02-16 04:43:00,25.4,21.5,30.03,NW,321,6.0,6.0,85,0.00,,,0.00,WeatherCatV1.02B3,2013-02-16 09:43:00,
2013-02-16 04:48:00,25.4,21.5,30.03,NNW,335,2.0,5.0,85,0.00,,,0.00,WeatherCatV1.02B3,2013-02-16 09:48:00,
2013-02-16 04:53:00,25.4,21.5,30.03,NNE,22,1.0,5.0,85,0.00,,,0.00,WeatherCatV1.02B3,2013-02-16 09:53:00,
2013-02-16 04:58:00,25.4,21.5,30.03,North,0,0.0,1.0,85,0.00,,,0.00,WeatherCatV1.02B3,2013-02-16 09:58:00,
2013-02-16 05:03:00,25.3,21.2,30.04,North,355,3.0,11.0,84,0.00,,,0.00,WeatherCatV1.02B3,2013-02-16 10:03:00,
2013-02-16 05:08:00,25.3,21.4,30.04,NNE,13,5.0,9.0,85,0.00,,,0.00,WeatherCatV1.02B3,2013-02-16 10:08:00,
2013-02-16 05:13:00,25.2,21.1,30.03,North,0,5.0,10.0,84,0.00,,,0.00,WeatherCatV1.02B3,2013-02-16 10:13:00,
2013-02-16 05:18:00,25.2,21.3,30.03,North,0,2.0,7.0,85,0.00,,,0.00,WeatherCatV1.02B3,2013-02-16 10:18:00,
2013-02-16 05:23:00,25.2,21.3,30.03,North,350,4.0,5.0,85,0.00,,,0.00,WeatherCatV1.02B3,2013-02-16 10:23:00,
2013-02-16 05:28:00,25.1,21.2,30.03,NNE,22,3.0,5.0,85,0.00,,,0.00,WeatherCatV1.02B3,2013-02-16 10:28:00,
2013-02-16 05:33:00,25.1,21.0,30.04,North,5,2.0,5.0,84,0.00,,,0.00,WeatherCatV1.02B3,2013-02-16 10:33:00,
2013-02-16 05:38:00,25.2,20.8,30.03,North,5,2.0,5.0,83,0.00,,,0.00,WeatherCatV1.02B3,2013-02-16 10:38:00,
2013-02-16 05:43:00,25.2,20.8,30.04,NE,37,3.0,10.0,83,0.00,,,0.00,WeatherCatV1.02B3,2013-02-16 10:43:00,
2013-02-16 05:48:00,25.3,20.9,30.04,NNW,341,2.0,5.0,83,0.00,,,0.00,WeatherCatV1.02B3,2013-02-16 10:48:00,
2013-02-16 05:53:00,25.4,20.7,30.03,NNE,22,3.0,4.0,82,0.00,,,0.00,WeatherCatV1.02B3,2013-02-16 10:53:00,
2013-02-16 05:58:00,25.4,20.7,30.04,NE,40,2.0,9.0,82,0.00,,,0.00,WeatherCatV1.02B3,2013-02-16 10:58:00,
2013-02-16 06:03:00,25.4,20.4,30.04,North,5,2.0,5.0,81,0.00,,,0.00,WeatherCatV1.02B3,2013-02-16 11:03:00,
2013-02-16 06:08:00,25.4,20.4,30.05,WNW,300,4.0,11.0,81,0.00,,,0.00,WeatherCatV1.02B3,2013-02-16 11:08:00,
2013-02-16 06:13:00,25.5,20.5,30.04,WNW,288,1.0,10.0,81,0.00,,,0.00,WeatherCatV1.02B3,2013-02-16 11:13:00,
2013-02-16 06:18:00,25.4,20.4,30.04,ENE,78,4.0,6.0,81,0.00,,,0.00,WeatherCatV1.02B3,2013-02-16 11:18:00,
2013-02-16 06:23:00,25.4,20.1,30.04,NW,326,4.0,11.0,80,0.00,,,0.00,WeatherCatV1.02B3,2013-02-16 11:23:00,
2013-02-16 06:28:00,25.4,20.4,30.04,NW,323,4.0,5.0,81,0.00,,,0.00,WeatherCatV1.02B3,2013-02-16 11:28:00,
2013-02-16 06:33:00,25.4,20.4,30.04,NE,35,2.0,3.0,81,0.00,,,0.00,WeatherCatV1.02B3,2013-02-16 11:33:00,
2013-02-16 06:38:00,25.4,20.1,30.04,ENE,61,0.0,11.0,80,0.00,,,0.00,WeatherCatV1.02B3,2013-02-16 11:38:00,
2013-02-16 06:43:00,25.4,20.4,30.04,NW,313,4.0,5.0,81,0.00,,,0.00,WeatherCatV1.02B3,2013-02-16 11:43:00,
2013-02-16 06:48:00,25.3,20.3,30.03,NE,48,3.0,5.0,81,0.00,,,0.00,WeatherCatV1.02B3,2013-02-16 11:48:00,
2013-02-16 06:53:00,25.3,20.0,30.04,ENE,63,3.0,6.0,80,0.00,,,0.00,WeatherCatV1.02B3,2013-02-16 11:53:00,
2013-02-16 06:58:00,25.4,20.1,30.04,NNW,341,2.0,5.0,80,0.00,,,0.00,WeatherCatV1.02B3,2013-02-16 11:58:00,
2013-02-16 07:03:00,25.4,20.1,30.04,NNE,20,1.0,3.0,80,0.00,,,0.00,WeatherCatV1.02B3,2013-02-16 12:03:00,
2013-02-16 07:08:00,25.4,20.4,30.04,NW,324,4.0,6.0,81,0.00,,,0.00,WeatherCatV1.02B3,2013-02-16 12:08:00,
2013-02-16 07:13:00,25.3,20.3,30.03,NNW,343,4.0,5.0,81,0.00,,,0.00,WeatherCatV1.02B3,2013-02-16 12:13:00,
2013-02-16 07:18:00,25.3,20.0,30.03,North,355,3.0,4.0,80,0.00,,,0.00,WeatherCatV1.02B3,2013-02-16 12:18:00,
2013-02-16 07:23:00,25.3,20.3,30.03,West,263,5.0,7.0,81,0.00,,,0.00,WeatherCatV1.02B3,2013-02-16 12:23:00,
2013-02-16 07:28:00,25.3,20.3,30.03,North,355,4.0,5.0,81,0.00,,,0.00,WeatherCatV1.02B3,2013-02-16 12:28:00,
2013-02-16 07:33:00,25.3,20.9,30.02,North,349,3.0,5.0,83,0.00,,,0.00,WeatherCatV1.02B3,2013-02-16 12:33:00,
2013-02-16 07:38:00,25.2,20.5,30.02,NNW,346,0.0,5.0,82,0.00,,,0.00,WeatherCatV1.02B3,2013-02-16 12:38:00,
2013-02-16 07:43:00,25.2,20.8,30.02,North,0,1.0,5.0,83,0.00,,,0.00,WeatherCatV1.02B3,2013-02-16 12:43:00,
2013-02-16 07:48:00,25.2,20.8,30.02,NE,38,0.0,5.0,83,0.00,,,0.00,WeatherCatV1.02B3,2013-02-16 12:48:00,
2013-02-16 07:53:00,25.2,20.8,30.02,North,0,1.0,4.0,83,0.00,,,0.00,WeatherCatV1.02B3,2013-02-16 12:53:00,
2013-02-16 07:58:00,25.2,21.1,30.02,North,5,1.0,4.0,84,0.00,,,0.00,WeatherCatV1.02B3,2013-02-16 12:58:00,
2013-02-16 08:03:00,25.1,21.2,30.02,North,0,1.0,4.0,85,0.00,,,0.00,WeatherCatV1.02B3,2013-02-16 13:03:00,
2013-02-16 08:08:00,25.1,21.2,30.03,North,5,1.0,3.0,85,0.00,,,0.00,WeatherCatV1.02B3,2013-02-16 13:08:00,
2013-02-16 08:13:00,25.2,21.3,30.03,North,9,0.0,2.0,85,0.00,,,0.00,WeatherCatV1.02B3,2013-02-16 13:13:00,
2013-02-16 08:18:00,25.2,23.2,30.02,North,9,1.0,2.0,92,0.00,,,0.00,WeatherCatV1.02B3,2013-02-16 13:18:00,
2013-02-16 08:23:00,25.2,21.1,30.02,North,0,0.0,2.0,84,0.00,,,0.00,WeatherCatV1.02B3,2013-02-16 13:23:00,
2013-02-16 08:28:00,25.3,21.2,30.02,North,355,2.0,2.0,84,0.00,,,0.00,WeatherCatV1.02B3,2013-02-16 13:28:00,
2013-02-16 08:33:00,25.3,21.2,30.02,NNW,338,3.0,3.0,84,0.00,,,0.00,WeatherCatV1.02B3,2013-02-16 13:33:00,
2013-02-16 08:38:00,25.4,21.0,30.02,North,0,0.0,1.0,83,0.00,,,0.00,WeatherCatV1.02B3,2013-02-16 13:38:00,
2013-02-16 08:43:00,25.4,21.3,30.03,North,0,0.0,1.0,84,0.00,,,0.00,WeatherCatV1.02B3,2013-02-16 13:43:00,
2013-02-16 08:48:00,25.4,21.0,30.03,NW,317,0.0,5.0,83,0.00,,,0.00,WeatherCatV1.02B3,2013-02-16 13:48:00,
2013-02-16 08:53:00,25.5,21.1,30.03,North,0,0.0,1.0,83,0.00,,,0.00,WeatherCatV1.02B3,2013-02-16 13:53:00,
2013-02-16 08:58:00,25.6,21.7,30.03,NNW,337,1.0,4.0,85,0.00,,,0.00,WeatherCatV1.02B3,2013-02-16 13:58:00,
2013-02-16 09:03:00,25.8,21.9,30.03,NNW,342,0.0,0.0,85,0.00,,,0.00,WeatherCatV1.02B3,2013-02-16 14:03:00,
2013-02-16 09:08:00,26.0,22.1,30.03,NW,322,0.0,0.0,85,0.00,,,0.00,WeatherCatV1.02B3,2013-02-16 14:08:00,
2013-02-16 09:13:00,26.2,22.3,30.03,North,0,2.0,4.0,85,0.00,,,0.00,WeatherCatV1.02B3,2013-02-16 14:13:00,
2013-02-16 09:18:00,26.4,22.8,30.03,North,0,2.0,2.0,86,0.00,,,0.00,WeatherCatV1.02B3,2013-02-16 14:18:00,
2013-02-16 09:23:00,26.5,22.9,30.03,NW,321,3.0,3.0,86,0.00,,,0.00,WeatherCatV1.02B3,2013-02-16 14:23:00,
2013-02-16 09:28:00,26.4,22.8,30.02,North,350,1.0,4.0,86,0.00,,,0.00,WeatherCatV1.02B3,2013-02-16 14:28:00,
2013-02-16 09:33:00,26.4,22.8,30.02,ENE,64,0.0,3.0,86,0.00,,,0.00,WeatherCatV1.02B3,2013-02-16 14:33:00,
2013-02-16 09:38:00,26.4,23.1,30.03,NNE,15,0.0,4.0,87,0.00,,,0.00,WeatherCatV1.02B3,2013-02-16 14:38:00,
2013-02-16 09:43:00,26.5,23.2,30.02,NNE,29,1.0,5.0,87,0.00,,,0.00,WeatherCatV1.02B3,2013-02-16 14:43:00,
2013-02-16 09:48:00,26.6,23.0,30.01,North,0,0.0,4.0,86,0.00,,,0.00,WeatherCatV1.02B3,2013-02-16 14:48:00,
2013-02-16 09:53:00,26.7,23.1,30.01,NW,306,0.0,3.0,86,0.00,,,0.00,WeatherCatV1.02B3,2013-02-16 14:53:00,
2013-02-16 09:58:00,26.9,23.3,30.01,NNE,26,4.0,4.0,86,0.00,,,0.00,WeatherCatV1.02B3,2013-02-16 14:58:00,
2013-02-16 10:03:00,27.0,23.1,30.01,NNW,336,3.0,3.0,85,0.00,,,0.00,WeatherCatV1.02B3,2013-02-16 15:03:00,
2013-02-16 10:08:00,27.2,23.0,30.01,North,355,2.0,3.0,84,0.00,,,0.00,WeatherCatV1.02B3,2013-02-16 15:08:00,
2013-02-16 10:13:00,27.6,23.4,30.02,WNW,283,0.0,3.0,84,0.00,,,0.00,WeatherCatV1.02B3,2013-02-16 15:13:00,
2013-02-16 10:18:00,27.9,23.1,30.01,NNE,17,4.0,8.0,82,0.00,,,0.00,WeatherCatV1.02B3,2013-02-16 15:18:00,
2013-02-16 10:23:00,28.1,23.3,30.01,WNW,297,1.0,2.0,82,0.00,,,0.00,WeatherCatV1.02B3,2013-02-16 15:23:00,
2013-02-16 10:28:00,28.1,22.7,30.02,NNW,330,0.0,3.0,80,0.00,,,0.00,WeatherCatV1.02B3,2013-02-16 15:28:00,
2013-02-16 10:33:00,28.3,23.5,30.01,North,10,0.0,3.0,82,0.00,,,0.00,WeatherCatV1.02B3,2013-02-16 15:33:00,
2013-02-16 10:38:00,28.4,22.7,30.01,WNW,298,1.0,3.0,79,0.00,,,0.00,WeatherCatV1.02B3,2013-02-16 15:38:00,
2013-02-16 10:43:00,28.4,23.0,30.01,WNW,301,0.0,0.0,80,0.00,,,0.00,WeatherCatV1.02B3,2013-02-16 15:43:00,
2013-02-16 10:48:00,28.5,22.8,30.02,NNW,329,3.0,5.0,79,0.00,,,0.00,WeatherCatV1.02B3,2013-02-16 15:48:00,
2013-02-16 10:53:00,28.5,22.8,30.01,NNE,26,0.0,3.0,79,0.00,,,0.00,WeatherCatV1.02B3,2013-02-16 15:53:00,
2013-02-16 10:58:00,28.5,23.4,30.01,North,355,3.0,9.0,81,0.00,,,0.00,WeatherCatV1.02B3,2013-02-16 15:58:00,
2013-02-16 11:03:00,28.4,23.0,30.01,NNW,329,5.0,7.0,80,0.00,,,0.00,WeatherCatV1.02B3,2013-02-16 16:03:00,
2013-02-16 11:08:00,28.2,23.1,30.02,North,355,0.0,9.0,81,0.00,,,0.00,WeatherCatV1.02B3,2013-02-16 16:08:00,
2013-02-16 11:13:00,28.0,22.9,30.02,NE,34,5.0,5.0,81,0.00,,,0.00,WeatherCatV1.02B3,2013-02-16 16:13:00,
2013-02-16 11:18:00,28.0,22.9,30.02,NNW,334,3.0,3.0,81,0.00,,,0.00,WeatherCatV1.02B3,2013-02-16 16:18:00,
2013-02-16 11:23:00,28.1,22.7,30.02,North,0,1.0,4.0,80,0.00,,,0.00,WeatherCatV1.02B3,2013-02-16 16:23:00,
2013-02-16 11:28:00,28.1,23.0,30.02,North,9,3.0,7.0,81,0.00,,,0.00,WeatherCatV1.02B3,2013-02-16 16:28:00,
2013-02-16 11:33:00,28.3,22.9,30.01,NW,315,3.0,6.0,80,0.00,,,0.00,WeatherCatV1.02B3,2013-02-16 16:33:00,
2013-02-16 11:38:00,28.4,23.0,30.01,WNW,299,1.0,4.0,80,0.00,,,0.00,WeatherCatV1.02B3,2013-02-16 16:38:00,
2013-02-16 11:43:00,28.4,22.7,30.00,NNW,331,0.0,5.0,79,0.00,,,0.00,WeatherCatV1.02B3,2013-02-16 16:43:00,
2013-02-16 11:48:00,28.3,22.0,30.00,NW,315,0.0,2.0,77,0.00,,,0.00,WeatherCatV1.02B3,2013-02-16 16:48:00,
2013-02-16 11:53:00,28.3,21.4,30.00,NNE,30,0.0,2.0,75,0.00,,,0.00,WeatherCatV1.02B3,2013-02-16 16:53:00,
2013-02-16 11:58:00,28.4,21.8,30.00,North,355,4.0,7.0,76,0.00,,,0.00,WeatherCatV1.02B3,2013-02-16 16:58:00,
2013-02-16 12:03:00,28.4,21.5,30.00,NW,326,4.0,5.0,75,0.00,,,0.00,WeatherCatV1.02B3,2013-02-16 17:03:00,
2013-02-16 12:08:00,28.4,21.5,30.00,WNW,287,1.0,3.0,75,0.00,,,0.00,WeatherCatV1.02B3,2013-02-16 17:08:00,
2013-02-16 12:13:00,28.3,20.8,30.00,North,0,9.0,9.0,73,0.00,,,0.00,WeatherCatV1.02B3,2013-02-16 17:13:00,
2013-02-16 12:18:00,28.3,21.1,29.99,NW,322,4.0,7.0,74,0.00,,,0.00,WeatherCatV1.02B3,2013-02-16 17:18:00,
2013-02-16 12:23:00,28.5,21.9,30.00,NW,326,6.0,10.0,76,0.00,,,0.00,WeatherCatV1.02B3,2013-02-16 17:23:00,
2013-02-16 12:28:00,28.4,22.1,29.99,NW,306,4.0,10.0,77,0.00,,,0.00,WeatherCatV1.02B3,2013-02-16 17:28:00,
2013-02-16 12:33:00,27.8,21.5,29.99,NE,42,10.0,11.0,77,0.00,,,0.00,WeatherCatV1.02B3,2013-02-16 17:33:00,
2013-02-16 12:38:00,27.6,21.7,30.00,West,265,2.0,9.0,78,0.00,,,0.00,WeatherCatV1.02B3,2013-02-16 17:38:00,
2013-02-16 12:43:00,27.4,21.5,29.99,ENE,64,0.0,5.0,78,0.00,,,0.00,WeatherCatV1.02B3,2013-02-16 17:43:00,
2013-02-16 12:48:00,27.3,21.7,29.99,NNE,26,10.0,13.0,79,0.00,,,0.00,WeatherCatV1.02B3,2013-02-16 17:48:00,
2013-02-16 12:53:00,27.3,21.7,29.99,NE,52,12.0,12.0,79,0.00,,,0.00,WeatherCatV1.02B3,2013-02-16 17:53:00,
2013-02-16 12:58:00,27.0,21.4,29.99,NNW,348,3.0,18.0,79,0.00,,,0.00,WeatherCatV1.02B3,2013-02-16 17:58:00,
2013-02-16 13:03:00,26.7,21.4,29.99,North,5,3.0,11.0,80,0.00,,,0.00,WeatherCatV1.02B3,2013-02-16 18:03:00,
2013-02-16 13:08:00,26.5,21.2,29.99,NW,323,15.0,15.0,80,0.00,,,0.00,WeatherCatV1.02B3,2013-02-16 18:08:00,
2013-02-16 13:13:00,26.4,21.1,29.98,NW,305,0.0,8.0,80,0.00,,,0.00,WeatherCatV1.02B3,2013-02-16 18:13:00,
2013-02-16 13:18:00,26.3,21.0,29.98,NNW,338,1.0,6.0,80,0.00,,,0.00,WeatherCatV1.02B3,2013-02-16 18:18:00,
2013-02-16 13:23:00,26.3,21.0,29.99,NNW,327,6.0,9.0,80,0.00,,,0.00,WeatherCatV1.02B3,2013-02-16 18:23:00,
2013-02-16 13:28:00,26.1,21.1,29.99,NNW,341,7.0,13.0,81,0.00,,,0.00,WeatherCatV1.02B3,2013-02-16 18:28:00,
2013-02-16 13:33:00,25.9,20.9,29.99,NE,41,4.0,16.0,81,0.00,,,0.00,WeatherCatV1.02B3,2013-02-16 18:33:00,
2013-02-16 13:38:00,25.3,20.3,29.99,WSW,242,2.0,19.0,81,0.00,,,0.00,WeatherCatV1.02B3,2013-02-16 18:38:00,
2013-02-16 13:43:00,24.8,20.1,29.99,NNE,23,14.0,17.0,82,0.00,,,0.00,WeatherCatV1.02B3,2013-02-16 18:43:00,
2013-02-16 13:48:00,24.9,20.8,29.99,NNW,345,11.0,13.0,84,0.00,,,0.00,WeatherCatV1.02B3,2013-02-16 18:48:00,
2013-02-16 13:53:00,24.8,20.7,29.99,NNW,341,5.0,14.0,84,0.00,,,0.00,WeatherCatV1.02B3,2013-02-16 18:53:00,
2013-02-16 13:58:00,25.0,21.1,29.98,NNE,27,7.0,7.0,85,0.00,,,0.00,WeatherCatV1.02B3,2013-02-16 18:58:00,
2013-02-16 14:03:00,25.3,20.3,29.98,WNW,300,9.0,11.0,81,0.00,,,0.00,WeatherCatV1.02B3,2013-02-16 19:03:00,
2013-02-16 14:08:00,25.7,20.4,29.98,North,9,9.0,15.0,80,0.00,,,0.00,WeatherCatV1.02B3,2013-02-16 19:08:00,
2013-02-16 14:13:00,26.0,20.4,29.98,NW,322,8.0,9.0,79,0.00,,,0.00,WeatherCatV1.02B3,2013-02-16 19:13:00,
2013-02-16 14:18:00,25.5,20.5,29.99,NNW,343,10.0,18.0,81,0.00,,,0.00,WeatherCatV1.02B3,2013-02-16 19:18:00,
2013-02-16 14:23:00,24.3,19.9,29.99,North,5,7.0,12.0,83,0.00,,,0.00,WeatherCatV1.02B3,2013-02-16 19:23:00,
2013-02-16 14:28:00,23.6,20.0,29.98,North,0,14.0,16.0,86,0.00,,,0.00,WeatherCatV1.02B3,2013-02-16 19:28:00,
2013-02-16 14:33:00,24.0,20.2,29.99,NNW,342,6.0,18.0,85,0.00,,,0.00,WeatherCatV1.02B3,2013-02-16 19:33:00,
2013-02-16 14:38:00,23.8,19.1,29.99,NNE,31,2.0,22.0,82,0.00,,,0.00,WeatherCatV1.02B3,2013-02-16 19:38:00,
2013-02-16 14:43:00,24.1,18.5,29.98,NW,326,10.0,16.0,79,0.00,,,0.00,WeatherCatV1.02B3,2013-02-16 19:43:00,
2013-02-16 14:48:00,24.3,18.1,29.98,NE,55,6.0,17.0,77,0.00,,,0.00,WeatherCatV1.02B3,2013-02-16 19:48:00,
2013-02-16 14:53:00,24.7,18.2,29.98,NNE,30,2.0,20.0,76,0.00,,,0.00,WeatherCatV1.02B3,2013-02-16 19:53:00,
2013-02-16 14:58:00,24.9,17.5,29.97,NNW,330,5.0,17.0,73,0.00,,,0.00,WeatherCatV1.02B3,2013-02-16 19:58:00,
2013-02-16 15:03:00,24.4,16.7,29.98,NNW,330,6.0,13.0,72,0.00,,,0.00,WeatherCatV1.02B3,2013-02-16 20:03:00,
2013-02-16 15:08:00,24.2,17.4,29.98,NNE,33,13.0,19.0,75,0.00,,,0.00,WeatherCatV1.02B3,2013-02-16 20:08:00,
2013-02-16 15:13:00,24.0,17.6,29.98,NNW,338,5.0,12.0,76,0.00,,,0.00,WeatherCatV1.02B3,2013-02-16 20:13:00,
2013-02-16 15:18:00,24.5,17.1,29.98,NW,319,2.0,13.0,73,0.00,,,0.00,WeatherCatV1.02B3,2013-02-16 20:18:00,
2013-02-16 15:23:00,24.6,16.9,29.98,WNW,300,5.0,14.0,72,0.00,,,0.00,WeatherCatV1.02B3,2013-02-16 20:23:00,
2013-02-16 15:28:00,24.3,17.8,29.99,ENE,57,2.0,20.0,76,0.00,,,0.00,WeatherCatV1.02B3,2013-02-16 20:28:00,
2013-02-16 15:33:00,23.8,17.4,29.99,East,86,5.0,15.0,76,0.00,,,0.00,WeatherCatV1.02B3,2013-02-16 20:33:00,
2013-02-16 15:38:00,23.7,16.3,29.98,SE,125,6.0,22.0,73,0.00,,,0.00,WeatherCatV1.02B3,2013-02-16 20:38:00,
2013-02-16 15:43:00,23.6,14.9,29.97,North,355,5.0,13.0,69,0.00,,,0.00,WeatherCatV1.02B3,2013-02-16 20:43:00,
2013-02-16 15:48:00,23.4,15.4,29.99,NNE,22,11.0,27.0,71,0.00,,,0.00,WeatherCatV1.02B3,2013-02-16 20:48:00,
2013-02-16 15:53:00,23.5,15.2,29.99,NW,321,11.0,18.0,70,0.00,,,0.00,WeatherCatV1.02B3,2013-02-16 20:53:00,
2013-02-16 15:58:00,23.5,13.8,29.99,NNE,15,11.0,17.0,66,0.00,,,0.00,WeatherCatV1.02B3,2013-02-16 20:58:00,
2013-02-16 16:03:00,23.9,13.9,29.99,WNW,299,14.0,23.0,65,0.00,,,0.00,WeatherCatV1.02B3,2013-02-16 21:03:00,
2013-02-16 16:08:00,23.9,13.5,30.00,West,275,16.0,22.0,64,0.00,,,0.00,WeatherCatV1.02B3,2013-02-16 21:08:00,
2013-02-16 16:13:00,23.7,13.3,30.00,NE,34,10.0,13.0,64,0.00,,,0.00,WeatherCatV1.02B3,2013-02-16 21:13:00,
2013-02-16 16:18:00,23.5,12.4,30.00,North,11,10.0,16.0,62,0.00,,,0.00,WeatherCatV1.02B3,2013-02-16 21:18:00,
2013-02-16 16:23:00,23.4,12.7,30.01,NNW,339,10.0,21.0,63,0.00,,,0.00,WeatherCatV1.02B3,2013-02-16 21:23:00,
2013-02-16 16:28:00,23.0,11.9,30.00,NE,56,7.0,17.0,62,0.00,,,0.00,WeatherCatV1.02B3,2013-02-16 21:28:00,
2013-02-16 16:33:00,22.9,12.9,30.01,North,0,13.0,23.0,65,0.00,,,0.00,WeatherCatV1.02B3,2013-02-16 21:33:00,
2013-02-16 16:38:00,22.8,13.2,30.00,NE,37,5.0,17.0,66,0.00,,,0.00,WeatherCatV1.02B3,2013-02-16 21:38:00,
2013-02-16 16:43:00,22.8,14.5,30.01,North,350,13.0,18.0,70,0.00,,,0.00,WeatherCatV1.02B3,2013-02-16 21:43:00,
2013-02-16 16:48:00,22.2,13.3,30.01,NE,52,5.0,17.0,68,0.00,,,0.00,WeatherCatV1.02B3,2013-02-16 21:48:00,
2013-02-16 16:53:00,21.8,12.9,30.01,NE,38,9.0,16.0,68,0.00,,,0.00,WeatherCatV1.02B3,2013-02-16 21:53:00,
2013-02-16 16:58:00,21.6,12.7,30.01,NE,42,6.0,11.0,68,0.00,,,0.00,WeatherCatV1.02B3,2013-02-16 21:58:00,
2013-02-16 17:03:00,21.5,12.6,30.02,NNW,341,6.0,17.0,68,0.00,,,0.00,WeatherCatV1.02B3,2013-02-16 22:03:00,
2013-02-16 17:08:00,21.3,12.1,30.01,North,349,11.0,13.0,67,0.00,,,0.00,WeatherCatV1.02B3,2013-02-16 22:08:00,
2013-02-16 17:13:00,21.3,12.7,30.02,NNW,346,11.0,18.0,69,0.00,,,0.00,WeatherCatV1.02B3,2013-02-16 22:13:00,
2013-02-16 17:18:00,21.2,12.0,30.01,NE,49,10.0,22.0,67,0.00,,,0.00,WeatherCatV1.02B3,2013-02-16 22:18:00,
2013-02-16 17:23:00,21.2,12.0,30.02,NW,318,12.0,22.0,67,0.00,,,0.00,WeatherCatV1.02B3,2013-02-16 22:23:00,
2013-02-16 17:28:00,21.2,12.6,30.03,ENE,65,14.0,16.0,69,0.00,,,0.00,WeatherCatV1.02B3,2013-02-16 22:28:00,
2013-02-16 17:33:00,21.1,13.2,30.03,NNW,342,4.0,28.0,71,0.00,,,0.00,WeatherCatV1.02B3,2013-02-16 22:33:00,
2013-02-16 17:38:00,20.6,13.3,30.03,NE,34,4.0,6.0,73,0.00,,,0.00,WeatherCatV1.02B3,2013-02-16 22:38:00,
2013-02-16 17:43:00,20.4,13.1,30.03,West,273,5.0,17.0,73,0.00,,,0.00,WeatherCatV1.02B3,2013-02-16 22:43:00,
2013-02-16 17:48:00,20.4,13.1,30.02,North,0,5.0,10.0,73,0.00,,,0.00,WeatherCatV1.02B3,2013-02-16 22:48:00,
2013-02-16 17:53:00,20.5,12.6,30.02,NNW,338,8.0,18.0,71,0.00,,,0.00,WeatherCatV1.02B3,2013-02-16 22:53:00,
2013-02-16 17:58:00,20.4,11.5,30.03,NE,53,12.0,20.0,68,0.00,,,0.00,WeatherCatV1.02B3,2013-02-16 22:58:00,
2013-02-16 18:03:00,20.3,11.1,30.04,North,350,13.0,23.0,67,0.00,,,0.00,WeatherCatV1.02B3,2013-02-16 23:03:00,
2013-02-16 18:08:00,20.2,10.7,30.03,NW,317,11.0,16.0,66,0.00,,,0.00,WeatherCatV1.02B3,2013-02-16 23:08:00,
2013-02-16 18:13:00,20.2,10.7,30.03,ENE,61,14.0,16.0,66,0.00,,,0.00,WeatherCatV1.02B3,2013-02-16 23:13:00,
2013-02-16 18:18:00,20.0,10.2,30.04,ENE,57,12.0,20.0,65,0.00,,,0.00,WeatherCatV1.02B3,2013-02-16 23:18:00,
2013-02-16 18:23:00,19.9,10.1,30.03,North,10,5.0,17.0,65,0.00,,,0.00,WeatherCatV1.02B3,2013-02-16 23:23:00,
2013-02-16 18:28:00,19.7,9.5,30.04,NE,37,10.0,22.0,64,0.00,,,0.00,WeatherCatV1.02B3,2013-02-16 23:28:00,
2013-02-16 18:33:00,19.6,9.4,30.04,North,10,7.0,16.0,64,0.00,,,0.00,WeatherCatV1.02B3,2013-02-16 23:33:00,
2013-02-16 18:38:00,19.4,9.6,30.05,ENE,59,9.0,14.0,65,0.00,,,0.00,WeatherCatV1.02B3,2013-02-16 23:38:00,
2013-02-16 18:43:00,19.2,10.1,30.04,SSE,163,5.0,12.0,67,0.00,,,0.00,WeatherCatV1.02B3,2013-02-16 23:43:00,
2013-02-16 18:48:00,19.1,10.3,30.05,WNW,303,6.0,16.0,68,0.00,,,0.00,WeatherCatV1.02B3,2013-02-16 23:48:00,
2013-02-16 18:53:00,19.1,11.0,30.05,NNE,17,8.0,12.0,70,0.00,,,0.00,WeatherCatV1.02B3,2013-02-16 23:53:00,
2013-02-16 18:58:00,19.0,12.1,30.06,NE,51,7.0,20.0,74,0.00,,,0.00,WeatherCatV1.02B3,2013-02-16 23:58:00,
2013-02-16 19:03:00,18.6,11.4,30.06,NE,52,10.0,14.0,73,0.00,,,0.00,WeatherCatV1.02B3,2013-02-17 00:03:00,
2013-02-16 19:08:00,18.5,11.6,30.07,ENE,59,12.0,22.0,74,0.00,,,0.00,WeatherCatV1.02B3,2013-02-17 00:08:00,
2013-02-16 19:13:00,18.3,11.4,30.07,NNW,335,7.0,15.0,74,0.00,,,0.00,WeatherCatV1.02B3,2013-02-17 00:13:00,
2013-02-16 19:18:00,18.2,11.6,30.07,NNW,336,5.0,9.0,75,0.00,,,0.00,WeatherCatV1.02B3,2013-02-17 00:18:00,
2013-02-16 19:23:00,18.1,11.8,30.07,NW,318,9.0,18.0,76,0.00,,,0.00,WeatherCatV1.02B3,2013-02-17 00:23:00,
2013-02-16 19:28:00,18.1,11.5,30.07,ESE,119,0.0,15.0,75,0.00,,,0.00,WeatherCatV1.02B3,2013-02-17 00:28:00,
2013-02-16 19:33:00,18.0,11.4,30.06,North,355,4.0,12.0,75,0.00,,,0.00,WeatherCatV1.02B3,2013-02-17 00:33:00,
2013-02-16 19:38:00,18.0,12.0,30.07,NW,321,10.0,16.0,77,0.00,,,0.00,WeatherCatV1.02B3,2013-02-17 00:38:00,
2013-02-16 19:43:00,18.0,12.6,30.06,East,79,0.0,14.0,79,0.00,,,0.00,WeatherCatV1.02B3,2013-02-17 00:43:00,
2013-02-16 19:48:00,18.0,13.2,30.08,NE,34,7.0,16.0,81,0.00,,,0.00,WeatherCatV1.02B3,2013-02-17 00:48:00,
2013-02-16 19:53:00,17.9,13.4,30.08,NE,56,10.0,21.0,82,0.00,,,0.00,WeatherCatV1.02B3,2013-02-17 00:53:00,
2013-02-16 19:58:00,17.7,12.6,30.08,NNE,25,12.0,23.0,80,0.00,,,0.00,WeatherCatV1.02B3,2013-02-17 00:58:00,
2013-02-16 20:03:00,17.7,12.3,30.08,NW,321,11.0,22.0,79,0.00,,,0.00,WeatherCatV1.02B3,2013-02-17 01:03:00,
2013-02-16 20:08:00,17.7,11.1,30.08,NNE,13,12.0,15.0,75,0.00,,,0.00,WeatherCatV1.02B3,2013-02-17 01:08:00,
2013-02-16 20:13:00,17.7,11.1,30.09,North,0,14.0,16.0,75,0.00,,,0.00,WeatherCatV1.02B3,2013-02-17 01:13:00,
2013-02-16 20:18:00,17.7,11.1,30.08,East,88,11.0,14.0,75,0.00,,,0.00,WeatherCatV1.02B3,2013-02-17 01:18:00,
2013-02-16 20:23:00,17.6,11.3,30.08,ENE,61,14.0,21.0,76,0.00,,,0.00,WeatherCatV1.02B3,2013-02-17 01:23:00,
2013-02-16 20:28:00,17.5,11.0,30.08,NNW,335,9.0,23.0,75,0.00,,,0.00,WeatherCatV1.02B3,2013-02-17 01:28:00,
2013-02-16 20:33:00,17.4,11.4,30.09,NE,51,13.0,30.0,77,0.00,,,0.00,WeatherCatV1.02B3,2013-02-17 01:33:00,
2013-02-16 20:38:00,17.3,12.2,30.10,WSW,244,10.0,21.0,80,0.00,,,0.00,WeatherCatV1.02B3,2013-02-17 01:38:00,
2013-02-16 20:43:00,16.9,12.9,30.11,NNW,330,6.0,23.0,84,0.00,,,0.00,WeatherCatV1.02B3,2013-02-17 01:43:00,
2013-02-16 20:48:00,16.6,13.2,30.10,NE,52,8.0,18.0,86,0.00,,,0.00,WeatherCatV1.02B3,2013-02-17 01:48:00,
2013-02-16 20:53:00,16.4,13.0,30.10,NE,49,9.0,26.0,86,0.00,,,0.00,WeatherCatV1.02B3,2013-02-17 01:53:00,
2013-02-16 20:58:00,16.4,13.2,30.10,NE,35,10.0,15.0,87,0.00,,,0.00,WeatherCatV1.02B3,2013-02-17 01:58:00,
2013-02-16 21:03:00,16.4,13.5,30.10,ENE,59,3.0,15.0,88,0.00,,,0.00,WeatherCatV1.02B3,2013-02-17 02:03:00,
2013-02-16 21:08:00,16.4,13.7,30.11,North,349,8.0,10.0,89,0.00,,,0.00,WeatherCatV1.02B3,2013-02-17 02:08:00,
2013-02-16 21:13:00,16.4,14.0,30.11,ENE,65,16.0,21.0,90,0.00,,,0.00,WeatherCatV1.02B3,2013-02-17 02:13:00,
2013-02-16 21:18:00,16.3,13.9,30.11,ENE,67,13.0,13.0,90,0.00,,,0.00,WeatherCatV1.02B3,2013-02-17 02:18:00,
2013-02-16 21:23:00,16.2,13.8,30.12,NNE,32,5.0,12.0,90,0.00,,,0.00,WeatherCatV1.02B3,2013-02-17 02:23:00,
2013-02-16 21:27:00,16.1,13.7,30.11,NNE,21,10.0,13.0,90,0.00,,,0.00,WeatherCatV1.02B3,2013-02-17 02:27:00,
2013-02-16 21:32:00,16.0,13.8,30.12,NE,49,12.0,18.0,91,0.00,,,0.00,WeatherCatV1.02B3,2013-02-17 02:32:00,
2013-02-16 21:37:00,16.0,13.8,30.12,ENE,57,9.0,18.0,91,0.00,,,0.00,WeatherCatV1.02B3,2013-02-17 02:37:00,
2013-02-16 21:42:00,16.0,13.8,30.13,North,355,2.0,10.0,91,0.00,,,0.00,WeatherCatV1.02B3,2013-02-17 02:42:00,
2013-02-16 21:47:00,16.0,13.8,30.12,SW,216,4.0,14.0,91,0.00,,,0.00,WeatherCatV1.02B3,2013-02-17 02:47:00,
2013-02-16 21:52:00,16.0,13.8,30.12,NE,55,4.0,16.0,91,0.00,,,0.00,WeatherCatV1.02B3,2013-02-17 02:52:00,
2013-02-16 21:57:00,16.0,13.8,30.12,NNW,327,3.0,6.0,91,0.00,,,0.00,WeatherCatV1.02B3,2013-02-17 02:57:00,
2013-02-16 22:02:00,16.0,13.6,30.12,NNE,33,6.0,13.0,90,0.00,,,0.00,WeatherCatV1.02B3,2013-02-17 03:02:00,
2013-02-16 22:07:00,16.0,13.6,30.12,North,0,3.0,12.0,90,0.00,,,0.00,WeatherCatV1.02B3,2013-02-17 03:07:00,
2013-02-16 22:12:00,15.9,13.0,30.12,NE,34,10.0,16.0,88,0.00,,,0.00,WeatherCatV1.02B3,2013-02-17 03:12:00,
2013-02-16 22:17:00,15.9,13.0,30.13,NNW,346,11.0,13.0,88,0.00,,,0.00,WeatherCatV1.02B3,2013-02-17 03:17:00,
2013-02-16 22:22:00,15.8,12.6,30.14,NNE,13,12.0,23.0,87,0.00,,,0.00,WeatherCatV1.02B3,2013-02-17 03:22:00,
2013-02-16 22:27:00,15.8,12.1,30.13,NE,49,3.0,14.0,85,0.00,,,0.00,WeatherCatV1.02B3,2013-02-17 03:27:00,
2013-02-16 22:32:00,15.9,12.2,30.13,NNW,343,14.0,15.0,85,0.00,,,0.00,WeatherCatV1.02B3,2013-02-17 03:32:00,
2013-02-16 22:37:00,15.8,12.1,30.13,NE,53,5.0,24.0,85,0.00,,,0.00,WeatherCatV1.02B3,2013-02-17 03:37:00,
2013-02-16 22:42:00,15.7,12.0,30.13,NNW,340,5.0,11.0,85,0.00,,,0.00,WeatherCatV1.02B3,2013-02-17 03:42:00,
2013-02-16 22:47:00,15.7,11.7,30.14,North,11,12.0,16.0,84,0.00,,,0.00,WeatherCatV1.02B3,2013-02-17 03:47:00,
2013-02-16 22:52:00,15.7,11.7,30.14,North,5,29.0,29.0,84,0.00,,,0.00,WeatherCatV1.02B3,2013-02-17 03:52:00,
2013-02-16 22:57:00,15.7,11.5,30.13,NNE,21,6.0,16.0,83,0.00,,,0.00,WeatherCatV1.02B3,2013-02-17 03:57:00,
2013-02-16 23:02:00,15.7,11.5,30.13,NNW,339,5.0,17.0,83,0.00,,,0.00,WeatherCatV1.02B3,2013-02-17 04:02:00,
2013-02-16 23:07:00,15.8,11.3,30.14,NNE,24,13.0,26.0,82,0.00,,,0.00,WeatherCatV1.02B3,2013-02-17 04:07:00,
2013-02-16 23:12:00,15.7,10.6,30.12,NNE,30,3.0,13.0,80,0.00,,,0.00,WeatherCatV1.02B3,2013-02-17 04:12:00,
2013-02-16 23:17:00,15.7,10.9,30.13,NE,38,13.0,13.0,81,0.00,,,0.00,WeatherCatV1.02B3,2013-02-17 04:17:00,
2013-02-16 23:23:00,15.7,10.9,30.14,NNE,25,11.0,17.0,81,0.00,,,0.00,WeatherCatV1.02B3,2013-02-17 04:23:00,
2013-02-16 23:28:00,15.7,10.6,30.14,North,349,11.0,24.0,80,0.00,,,0.00,WeatherCatV1.02B3,2013-02-17 04:28:00,
2013-02-16 23:33:00,15.6,10.3,30.14,NNE,15,19.0,24.0,79,0.00,,,0.00,WeatherCatV1.02B3,2013-02-17 04:33:00,
2013-02-16 23:38:00,15.6,10.6,30.14,NE,51,10.0,20.0,80,0.00,,,0.00,WeatherCatV1.02B3,2013-02-17 04:38:00,
2013-02-16 23:43:00,15.5,10.7,30.14,North,9,11.0,18.0,81,0.00,,,0.00,WeatherCatV1.02B3,2013-02-17 04:43:00,
2013-02-16 23:48:00,15.5,10.7,30.14,ENE,63,16.0,17.0,81,0.00,,,0.00,WeatherCatV1.02B3,2013-02-17 04:48:00,
2013-02-16 23:53:00,15.5,10.5,30.15,NNW,344,10.0,23.0,80,0.00,,,0.00,WeatherCatV1.02B3,2013-02-17 04:53:00,
2013-02-16 23:58:00,15.4,10.4,30.14,WSW,250,2.0,16.0,80,0.00,,,0.00,WeatherCatV1.02B3,2013-02-17 04:58:00,